Location: Almena City Lake
(39.8850°N, 99.6804°W)
Time: 08:17:28
(UTC+00:00)

STARLINK-27 - Pass Details

Date: 18 February 2020
Orbit: 528 x 530 km, 53.0° (Epoch: 31 March)

Event Time Altitude Azimuth Distance (km) Brightness Sun altitude
Rises 01:26:57 0° 220° (SW) 2,653 7.8 -14.1°
Reaches altitude 10° 01:29:10 10° 217° (SW) 1,767 6.8 -14.5°
Maximum altitude 01:33:08 63° 137° (SE) 593 3.5 -15.3°
Enters shadow 01:35:06 28° 64° (ENE) 1,019 4.4 -15.7°
